,,Stat5,,Stat1,,Stat2,,Stat3,,Stat4,,Wind1,,Wind1,
time,status,PA1M_AVG,status,PR1M_SUM,status,RH1M_AVG,status,SR1M_AVG,status,TA1M_AVG,status,W1dAve1m,status,W1sAve1m,
2000-05-18, 00:00:00,VALID,917.408,VALID,0,VALID,97.0145,VALID,0,VALID,19.1906,VALID,254,VALID,0,
2000-05-18, 00:01:00,VALID,917.404,VALID,0,VALID,97.3032,VALID,0,VALID,19.2326,VALID,258,VALID,0.468133,
2000-05-18, 00:02:00,VALID,917.392,VALID,0,VALID,97.471,VALID,0.0169808,VALID,19.2778,VALID,260,VALID,0.439145,
2000-05-18, 00:03:00,VALID,917.373,VALID,0,VALID,97.4799,VALID,0,VALID,19.2674,VALID,260,VALID,0.128205,
2000-05-18, 00:04:00,VALID,917.369,VALID,0,VALID,97.5842,VALID,0,VALID,19.3106,VALID,260,VALID,0.0853207,
2000-05-18, 00:05:00,VALID,917.376,VALID,0,VALID,97.6732,VALID,0.0169808,VALID,19.3228,VALID,261,VALID,0,
2000-05-18, 00:06:00,VALID,917.373,VALID,0,VALID,97.7228,VALID,0,VALID,19.356,VALID,264,VALID,0,
2000-05-18, 00:07:00,VALID,917.394,VALID,0,VALID,97.7991,VALID,0,VALID,19.3717,VALID,264,VALID,0,
2000-05-18, 00:08:00,VALID,917.408,VALID,0,VALID,97.7838,VALID,0,VALID,19.3682,VALID,264,VALID,0,
2000-05-18, 00:09:00,VALID,917.421,VALID,0,VALID,97.8347,VALID,0,VALID,19.3548,VALID,264,VALID,0,
2000-05-18, 00:10:00,VALID,917.42,VALID,0,VALID,97.9377,VALID,0,VALID,19.3908,VALID,247,VALID,0,
2000-05-18, 00:11:00,VALID,917.412,VALID,0,VALID,97.7444,VALID,0,VALID,19.3814,VALID,227,VALID,0,
2000-05-18, 00:12:00,VALID,917.378,VALID,0,VALID,97.3833,VALID,-0.0169808,VALID,19.2688,VALID,220,VALID,0,
2000-05-18, 00:13:00,VALID,917.378,VALID,0,VALID,97.5092,VALID,-0.0169808,VALID,19.2559,VALID,220,VALID,0,
2000-05-18, 00:14:00,VALID,917.359,VALID,0,VALID,97.7241,VALID,0,VALID,19.2716,VALID,221,VALID,0,
2000-05-18, 00:15:00,VALID,917.336,VALID,0,VALID,97.883,VALID,0,VALID,19.2813,VALID,218,VALID,0,
2000-05-18, 00:16:00,VALID,917.315,VALID,0,VALID,97.9987,VALID,0,VALID,19.3039,VALID,215,VALID,0,
2000-05-18, 00:17:00,VALID,917.302,VALID,0,VALID,98.0369,VALID,0,VALID,19.3138,VALID,221,VALID,0,
2000-05-18, 00:18:00,VALID,917.287,VALID,0,VALID,97.7635,VALID,0,VALID,19.2621,VALID,234,VALID,0,
2000-05-18, 00:19:00,VALID,917.261,VALID,0,VALID,97.148,VALID,0,VALID,19.1329,VALID,232,VALID,0,
2000-05-18, 00:20:00,VALID,917.25,VALID,0,VALID,96.6241,VALID,0,VALID,19.0194,VALID,231,VALID,0,
2000-05-18, 00:21:00,VALID,917.258,VALID,0,VALID,96.8429,VALID,0,VALID,18.9749,VALID,232,VALID,0,
2000-05-18, 00:22:00,VALID,917.252,VALID,0,VALID,97.2968,VALID,-0.0169808,VALID,18.9647,VALID,232,VALID,0,
2000-05-18, 00:23:00,VALID,917.268,VALID,0,VALID,97.3273,VALID,-0.0169808,VALID,18.9396,VALID,232,VALID,0,
2000-05-18, 00:24:00,VALID,917.272,VALID,0,VALID,97.2612,VALID,0,VALID,18.8745,VALID,232,VALID,0,
2000-05-18, 00:25:00,VALID,917.284,VALID,0,VALID,96.9777,VALID,-0.0509425,VALID,18.7908,VALID,232,VALID,0,
2000-05-18, 00:26:00,VALID,917.288,VALID,0,VALID,96.1371,VALID,0,VALID,18.6648,VALID,232,VALID,0,
2000-05-18, 00:27:00,VALID,917.284,VALID,0,VALID,96.2452,VALID,0.0169808,VALID,18.5968,VALID,232,VALID,0,
2000-05-18, 00:28:00,VALID,917.288,VALID,0,VALID,96.5911,VALID,0,VALID,18.5677,VALID,232,VALID,0,
2000-05-18, 00:29:00,VALID,917.276,VALID,0,VALID,97.0946,VALID,-0.0169808,VALID,18.5707,VALID,232,VALID,0,
2000-05-18, 00:30:00,VALID,917.257,VALID,0,VALID,97.7165,VALID,-0.0169808,VALID,18.6263,VALID,232,VALID,0,
2000-05-18, 00:31:00,VALID,917.245,VALID,0,VALID,98.1208,VALID,-0.0339617,VALID,18.6944,VALID,232,VALID,0,
2000-05-18, 00:32:00,VALID,917.22,VALID,0,VALID,98.4794,VALID,-0.0509425,VALID,18.7975,VALID,232,VALID,0,
2000-05-18, 00:33:00,VALID,917.206,VALID,0,VALID,98.3599,VALID,-0.0849042,VALID,18.83,VALID,232,VALID,0,
2000-05-18, 00:34:00,VALID,917.195,VALID,0,VALID,98.3243,VALID,-0.0509425,VALID,18.8203,VALID,232,VALID,0,
2000-05-18, 00:35:00,VALID,917.196,VALID,0,VALID,98.3573,VALID,-0.0169808,VALID,18.8106,VALID,232,VALID,0,
2000-05-18, 00:36:00,VALID,917.201,VALID,0,VALID,97.9848,VALID,-0.0169808,VALID,18.6847,VALID,232,VALID,0,
2000-05-18, 00:37:00,VALID,917.191,VALID,0,VALID,97.7788,VALID,-0.0849042,VALID,18.5975,VALID,232,VALID,0,
2000-05-18, 00:38:00,VALID,917.173,VALID,0,VALID,97.7355,VALID,-0.0509425,VALID,18.5359,VALID,232,VALID,0,
2000-05-18, 00:39:00,VALID,917.124,VALID,0,VALID,97.7889,VALID,-0.0679233,VALID,18.5144,VALID,232,VALID,0,
2000-05-18, 00:40:00,VALID,917.072,VALID,0,VALID,98.1768,VALID,-0.0509425,VALID,18.5329,VALID,232,VALID,0,
2000-05-18, 00:41:00,VALID,917.005,VALID,0,VALID,98.5659,VALID,-0.0679233,VALID,18.6263,VALID,232,VALID,0,
2000-05-18, 00:42:00,VALID,916.973,VALID,0,VALID,98.6422,VALID,-0.0679233,VALID,18.711,VALID,232,VALID,0,
2000-05-18, 00:43:00,VALID,916.945,VALID,0,VALID,98.5214,VALID,-0.0509425,VALID,18.7112,VALID,232,VALID,0,
2000-05-18, 00:44:00,VALID,916.943,VALID,0,VALID,98.468,VALID,-0.0849042,VALID,18.6886,VALID,232,VALID,0,
2000-05-18, 00:45:00,VALID,916.952,VALID,0,VALID,98.468,VALID,-0.0849042,VALID,18.6563,VALID,233,VALID,0,
2000-05-18, 00:46:00,VALID,916.968,VALID,0,VALID,98.3968,VALID,-0.0679233,VALID,18.6111,VALID,229,VALID,0,
2000-05-18, 00:47:00,VALID,916.99,VALID,0,VALID,98.309,VALID,-0.0849042,VALID,18.5463,VALID,201,VALID,0,
2000-05-18, 00:48:00,VALID,916.996,VALID,0,VALID,98.5786,VALID,-0.101885,VALID,18.5654,VALID,199,VALID,0,
2000-05-18, 00:49:00,VALID,916.995,VALID,0,VALID,98.6435,VALID,-0.0339617,VALID,18.5885,VALID,207,VALID,0,
2000-05-18, 00:50:00,VALID,917.005,VALID,0,VALID,99.0059,VALID,-0.101885,VALID,18.7115,VALID,215,VALID,0.143581,
2000-05-18, 00:51:00,VALID,917.003,VALID,0,VALID,98.9982,VALID,-0.0509425,VALID,18.7756,VALID,217,VALID,0.610491,
2000-05-18, 00:52:00,VALID,917.007,VALID,0,VALID,98.8914,VALID,-0.101885,VALID,18.7887,VALID,220,VALID,0.762952,
2000-05-18, 00:53:00,VALID,917.027,VALID,0,VALID,98.9207,VALID,-0.0679233,VALID,18.795,VALID,223,VALID,0.70228,
2000-05-18, 00:54:00,VALID,917.03,VALID,0,VALID,98.913,VALID,-0.0679233,VALID,18.8146,VALID,220,VALID,0.7883,
2000-05-18, 00:55:00,VALID,917.039,VALID,0,VALID,98.927,VALID,-0.0679233,VALID,18.8277,VALID,217,VALID,1.02402,
2000-05-18, 00:56:00,VALID,917.022,VALID,0,VALID,99.0059,VALID,-0.0509425,VALID,18.8397,VALID,215,VALID,1.05263,
2000-05-18, 00:57:00,VALID,917.01,VALID,0,VALID,98.9677,VALID,-0.0509425,VALID,18.8693,VALID,207,VALID,0.717105,
2000-05-18, 00:58:00,VALID,917.004,VALID,0,VALID,98.9143,VALID,-0.0509425,VALID,18.837,VALID,210,VALID,0.558008,
2000-05-18, 00:59:00,VALID,917.01,VALID,0,VALID,98.9626,VALID,-0.0169808,VALID,18.8372,VALID,212,VALID,0.133614,
2000-05-18, 01:00:00,VALID,917.028,VALID,0,VALID,98.9639,VALID,-0.0849042,VALID,18.8404,VALID,202,VALID,0,
2000-05-18, 01:01:00,VALID,917.045,VALID,0,VALID,98.9385,VALID,-0.101885,VALID,18.8344,VALID,202,VALID,0,
2000-05-18, 01:02:00,VALID,917.054,VALID,0,VALID,98.8965,VALID,-0.0849042,VALID,18.8019,VALID,202,VALID,0,
2000-05-18, 01:03:00,VALID,917.064,VALID,0,VALID,98.838,VALID,-0.0509425,VALID,18.7525,VALID,202,VALID,0,
2000-05-18, 01:04:00,VALID,917.057,VALID,0,VALID,98.8418,VALID,-0.0169808,VALID,18.7334,VALID,202,VALID,0,
2000-05-18, 01:05:00,VALID,917.036,VALID,0,VALID,98.8596,VALID,-0.0679233,VALID,18.7239,VALID,202,VALID,0,
2000-05-18, 01:06:00,VALID,917.033,VALID,0,VALID,98.8711,VALID,-0.0849042,VALID,18.7043,VALID,202,VALID,0,
2000-05-18, 01:07:00,VALID,916.997,VALID,0,VALID,98.8889,VALID,-0.0849042,VALID,18.6983,VALID,202,VALID,0,
2000-05-18, 01:08:00,VALID,916.991,VALID,0,VALID,98.8062,VALID,-0.0679233,VALID,18.6593,VALID,202,VALID,0,
2000-05-18, 01:09:00,VALID,916.986,VALID,0,VALID,98.7541,VALID,-0.0679233,VALID,18.6007,VALID,202,VALID,0,
2000-05-18, 01:10:00,VALID,916.981,VALID,0,VALID,98.8227,VALID,-0.0339617,VALID,18.5818,VALID,202,VALID,0,
2000-05-18, 01:11:00,VALID,916.972,VALID,0,VALID,98.8088,VALID,-0.0849042,VALID,18.5527,VALID,202,VALID,0,
2000-05-18, 01:12:00,VALID,916.962,VALID,0,VALID,98.7808,VALID,-0.0679233,VALID,18.5274,VALID,202,VALID,0,
2000-05-18, 01:13:00,VALID,916.933,VALID,0,VALID,98.777,VALID,-0.0509425,VALID,18.511,VALID,202,VALID,0,
2000-05-18, 01:14:00,VALID,916.914,VALID,0,VALID,98.8851,VALID,-0.0509425,VALID,18.5105,VALID,202,VALID,0,
2000-05-18, 01:15:00,VALID,916.891,VALID,0,VALID,98.8609,VALID,-0.101885,VALID,18.5301,VALID,202,VALID,0,
2000-05-18, 01:16:00,VALID,916.882,VALID,0,VALID,98.7643,VALID,-0.101885,VALID,18.4881,VALID,202,VALID,0,
2000-05-18, 01:17:00,VALID,916.886,VALID,0,VALID,98.6663,VALID,-0.0679233,VALID,18.4332,VALID,202,VALID,0,
2000-05-18, 01:18:00,VALID,916.887,VALID,0,VALID,98.6473,VALID,-0.0849042,VALID,18.3716,VALID,200,VALID,0,
2000-05-18, 01:19:00,VALID,916.896,VALID,0,VALID,98.6282,VALID,-0.0169808,VALID,18.3331,VALID,173,VALID,0,
2000-05-18, 01:20:00,VALID,916.911,VALID,0,VALID,98.7019,VALID,-0.101885,VALID,18.314,VALID,163,VALID,0,
2000-05-18, 01:21:00,VALID,916.924,VALID,0,VALID,98.6371,VALID,-0.0509425,VALID,18.2817,VALID,163,VALID,0,
2000-05-18, 01:22:00,VALID,916.931,VALID,0,VALID,98.6498,VALID,-0.0679233,VALID,18.2588,VALID,170,VALID,0,
2000-05-18, 01:23:00,VALID,916.924,VALID,0,VALID,98.7134,VALID,-0.0339617,VALID,18.2588,VALID,186,VALID,0,
2000-05-18, 01:24:00,VALID,916.907,VALID,0,VALID,98.8469,VALID,-0.0679233,VALID,18.2847,VALID,186,VALID,0.00959821,
2000-05-18, 01:25:00,VALID,916.898,VALID,0,VALID,99.1712,VALID,-0.101885,VALID,18.3723,VALID,195,VALID,0.958705,
2000-05-18, 01:26:00,VALID,916.882,VALID,0,VALID,99.4013,VALID,-0.0339617,VALID,18.5594,VALID,193,VALID,0.855263,
2000-05-18, 01:27:00,VALID,916.87,VALID,0,VALID,99.4204,VALID,-0.0679233,VALID,18.6819,VALID,191,VALID,0.638822,
2000-05-18, 01:28:00,VALID,916.849,VALID,0,VALID,99.3098,VALID,-0.0679233,VALID,18.6849,VALID,189,VALID,0.176172,
2000-05-18, 01:29:00,VALID,916.823,VALID,0,VALID,99.2068,VALID,-0.0509425,VALID,18.6625,VALID,190,VALID,0.241776,
2000-05-18, 01:30:00,VALID,916.79,VALID,0,VALID,99.1089,VALID,-0.0509425,VALID,18.6369,VALID,212,VALID,0.418074,
2000-05-18, 01:31:00,VALID,916.738,VALID,0,VALID,98.9664,VALID,-0.0509425,VALID,18.5631,VALID,222,VALID,0.665264,
2000-05-18, 01:32:00,VALID,916.7,VALID,0,VALID,99.0224,VALID,-0.0339617,VALID,18.5373,VALID,212,VALID,0.816306,
2000-05-18, 01:33:00,VALID,916.663,VALID,0,VALID,99.0974,VALID,-0.101885,VALID,18.5594,VALID,214,VALID,0.851362,
2000-05-18, 01:34:00,VALID,916.656,VALID,0,VALID,99.1432,VALID,-0.0509425,VALID,18.5984,VALID,208,VALID,0.656696,
2000-05-18, 01:35:00,VALID,916.667,VALID,0,VALID,98.9868,VALID,-0.0169808,VALID,18.5756,VALID,191,VALID,0.151172,
2000-05-18, 01:36:00,VALID,916.693,VALID,0,VALID,98.6358,VALID,-0.0169808,VALID,18.4141,VALID,157,VALID,0,
2000-05-18, 01:37:00,VALID,916.715,VALID,0,VALID,98.6549,VALID,-0.0679233,VALID,18.3433,VALID,157,VALID,0,
2000-05-18, 01:38:00,VALID,916.742,VALID,0,VALID,99.0415,VALID,-0.101885,VALID,18.4141,VALID,160,VALID,0,
2000-05-18, 01:39:00,VALID,916.749,VALID,0,VALID,99.2195,VALID,-0.101885,VALID,18.5368,VALID,165,VALID,0,
2000-05-18, 01:40:00,VALID,916.763,VALID,0,VALID,99.1483,VALID,-0.0849042,VALID,18.5562,VALID,164,VALID,0,
2000-05-18, 01:41:00,VALID,916.762,VALID,0,VALID,99.0313,VALID,-0.0509425,VALID,18.5174,VALID,159,VALID,0.258868,
2000-05-18, 01:42:00,VALID,916.747,VALID,0,VALID,99.1597,VALID,-0.0849042,VALID,18.5306,VALID,162,VALID,0.879241,
2000-05-18, 01:43:00,VALID,916.742,VALID,0,VALID,99.2602,VALID,-0.0849042,VALID,18.6014,VALID,168,VALID,0.917763,
2000-05-18, 01:44:00,VALID,916.733,VALID,0,VALID,99.2665,VALID,-0.0849042,VALID,18.6566,VALID,167,VALID,0.918708,
2000-05-18, 01:45:00,VALID,916.731,VALID,0,VALID,99.1343,VALID,-0.0509425,VALID,18.6501,VALID,167,VALID,0.691883,
2000-05-18, 01:46:00,VALID,916.715,VALID,0,VALID,99.0885,VALID,-0.0339617,VALID,18.589,VALID,166,VALID,0.914648,
2000-05-18, 01:47:00,VALID,916.704,VALID,0,VALID,99.1241,VALID,-0.0849042,VALID,18.5984,VALID,164,VALID,1.02529,
2000-05-18, 01:48:00,VALID,916.682,VALID,0,VALID,99.1152,VALID,-0.101885,VALID,18.6016,VALID,160,VALID,0.911801,
2000-05-18, 01:49:00,VALID,916.662,VALID,0,VALID,99.1165,VALID,-0.0849042,VALID,18.5952,VALID,158,VALID,0.901953,
2000-05-18, 01:50:00,VALID,916.641,VALID,0,VALID,99.1902,VALID,-0.0679233,VALID,18.6116,VALID,148,VALID,0.707131,
2000-05-18, 01:51:00,VALID,916.604,VALID,0,VALID,98.8914,VALID,-0.101885,VALID,18.4953,VALID,135,VALID,0.662946,
2000-05-18, 01:52:00,VALID,916.587,VALID,0,VALID,98.7414,VALID,-0.101885,VALID,18.3917,VALID,133,VALID,0.462891,
2000-05-18, 01:53:00,VALID,916.569,VALID,0,VALID,98.6613,VALID,-0.0679233,VALID,18.3207,VALID,131,VALID,0.487196,
2000-05-18, 01:54:00,VALID,916.552,VALID,0,VALID,98.5557,VALID,-0.0679233,VALID,18.2561,VALID,120,VALID,0.357856,
2000-05-18, 01:55:00,VALID,916.537,VALID,0,VALID,98.5201,VALID,-0.0679233,VALID,18.2046,VALID,120,VALID,0.0733173,
2000-05-18, 01:56:00,VALID,916.529,VALID,0,VALID,98.6549,VALID,-0.0509425,VALID,18.2233,VALID,120,VALID,0,
2000-05-18, 01:57:00,VALID,916.49,VALID,0,VALID,98.7058,VALID,-0.101885,VALID,18.2399,VALID,120,VALID,0,
2000-05-18, 01:58:00,VALID,916.456,VALID,0,VALID,98.7058,VALID,-0.0679233,VALID,18.2464,VALID,120,VALID,0,
2000-05-18, 01:59:00,VALID,916.435,VALID,0,VALID,98.6358,VALID,-0.0849042,VALID,18.1913,VALID,120,VALID,0,
2000-05-18, 02:00:00,VALID,916.398,VALID,0,VALID,98.5519,VALID,-0.0679233,VALID,18.146,VALID,120,VALID,0,
2000-05-18, 02:01:00,VALID,916.374,VALID,0,VALID,98.5595,VALID,-0.0679233,VALID,18.1168,VALID,120,VALID,0,
2000-05-18, 02:02:00,VALID,916.352,VALID,0,VALID,98.4603,VALID,-0.0509425,VALID,18.0621,VALID,120,VALID,0.0364583,
2000-05-18, 02:03:00,VALID,916.323,VALID,0,VALID,98.6117,VALID,-0.0679233,VALID,18.0778,VALID,120,VALID,0.0174279,
2000-05-18, 02:04:00,VALID,916.292,VALID,0,VALID,98.7197,VALID,-0.0849042,VALID,18.1177,VALID,120,VALID,0,
2000-05-18, 02:05:00,VALID,916.237,VALID,0,VALID,98.8634,VALID,-0.0849042,VALID,18.1562,VALID,120,VALID,0,
2000-05-18, 02:06:00,VALID,916.211,VALID,0,VALID,98.88,VALID,-0.0679233,VALID,18.188,VALID,120,VALID,0,
2000-05-18, 02:07:00,VALID,916.183,VALID,0,VALID,98.8062,VALID,-0.0679233,VALID,18.1555,VALID,120,VALID,0,
2000-05-18, 02:08:00,VALID,916.168,VALID,0,VALID,98.9372,VALID,-0.0509425,VALID,18.2466,VALID,120,VALID,0.150735,
2000-05-18, 02:09:00,VALID,916.142,VALID,0,VALID,99.1101,VALID,-0.0679233,VALID,18.388,VALID,126,VALID,0.119243,
2000-05-18, 02:10:00,VALID,916.124,VALID,0,VALID,99.2131,VALID,-0.101885,VALID,18.4372,VALID,179,VALID,0,
2000-05-18, 02:11:00,VALID,916.113,VALID,0,VALID,98.9995,VALID,-0.0339617,VALID,18.4367,VALID,190,VALID,0.380425,
2000-05-18, 02:12:00,VALID,916.11,VALID,0,VALID,98.571,VALID,-0.0849042,VALID,18.2593,VALID,199,VALID,0.509983,
2000-05-18, 02:13:00,VALID,916.109,VALID,0,VALID,98.7197,VALID,-0.101885,VALID,18.1723,VALID,213,VALID,0.693462,
2000-05-18, 02:14:00,VALID,916.126,VALID,0,VALID,98.9105,VALID,-0.0679233,VALID,18.185,VALID,218,VALID,0.312289,
2000-05-18, 02:15:00,VALID,916.144,VALID,0,VALID,98.8736,VALID,-0.0169808,VALID,18.1781,VALID,215,VALID,0,
2000-05-18, 02:16:00,VALID,916.171,VALID,0,VALID,98.6867,VALID,-0.0339617,VALID,18.1204,VALID,215,VALID,0.208036,
2000-05-18, 02:17:00,VALID,916.185,VALID,0,VALID,98.7083,VALID,-0.0339617,VALID,18.0558,VALID,207,VALID,0.561883,
2000-05-18, 02:18:00,VALID,916.172,VALID,0,VALID,98.8418,VALID,-0.101885,VALID,18.0522,VALID,219,VALID,0.582131,
2000-05-18, 02:19:00,VALID,916.17,VALID,0,VALID,98.9168,VALID,-0.0849042,VALID,18.0685,VALID,234,VALID,0.517383,
2000-05-18, 02:20:00,VALID,916.167,VALID,0,VALID,99.0644,VALID,-0.0679233,VALID,18.1273,VALID,237,VALID,0.581003,
2000-05-18, 02:21:00,VALID,916.17,VALID,0,VALID,99.2525,VALID,-0.0679233,VALID,18.2432,VALID,209,VALID,0.986579,
2000-05-18, 02:22:00,VALID,916.169,VALID,0,VALID,99.2767,VALID,-0.0849042,VALID,18.2819,VALID,212,VALID,1.03986,
2000-05-18, 02:23:00,VALID,916.185,VALID,0,VALID,99.4624,VALID,-0.0849042,VALID,18.4111,VALID,221,VALID,1.07432,
2000-05-18, 02:24:00,VALID,916.21,VALID,0,VALID,99.4585,VALID,-0.0339617,VALID,18.5177,VALID,208,VALID,0.534054,
2000-05-18, 02:25:00,VALID,916.23,VALID,0,VALID,99.3619,VALID,-0.101885,VALID,18.5241,VALID,221,VALID,0.180357,
2000-05-18, 02:26:00,VALID,916.262,VALID,0,VALID,99.2335,VALID,-0.0849042,VALID,18.4856,VALID,224,VALID,0,
2000-05-18, 02:27:00,VALID,916.281,VALID,0,VALID,99.0631,VALID,-0.0679233,VALID,18.3758,VALID,223,VALID,0,
2000-05-18, 02:28:00,VALID,916.299,VALID,0,VALID,99.1063,VALID,-0.0679233,VALID,18.3209,VALID,224,VALID,0.103299,
2000-05-18, 02:29:00,VALID,916.32,VALID,0,VALID,99.1813,VALID,-0.0849042,VALID,18.3142,VALID,225,VALID,0.569046,
2000-05-18, 02:30:00,VALID,916.352,VALID,0,VALID,99.2131,VALID,-0.0509425,VALID,18.3075,VALID,225,VALID,0.45847,
2000-05-18, 02:31:00,VALID,916.366,VALID,0,VALID,99.0466,VALID,-0.0509425,VALID,18.2558,VALID,220,VALID,0.374367,
2000-05-18, 02:32:00,VALID,916.384,VALID,0,VALID,98.8812,VALID,-0.0849042,VALID,18.1398,VALID,223,VALID,0.758235,
2000-05-18, 02:33:00,VALID,916.398,VALID,0,VALID,99.0071,VALID,-0.0849042,VALID,18.0948,VALID,221,VALID,0.734375,
2000-05-18, 02:34:00,VALID,916.401,VALID,0,VALID,99.1241,VALID,-0.0679233,VALID,18.117,VALID,215,VALID,0.74815,
2000-05-18, 02:35:00,VALID,916.399,VALID,0,VALID,99.222,VALID,-0.0339617,VALID,18.1398,VALID,204,VALID,0.833404,
2000-05-18, 02:36:00,VALID,916.382,VALID,0,VALID,99.2437,VALID,-0.0339617,VALID,18.1691,VALID,200,VALID,0.848323,
2000-05-18, 02:37:00,VALID,916.381,VALID,0,VALID,99.4585,VALID,-0.0679233,VALID,18.2464,VALID,209,VALID,0.953906,
2000-05-18, 02:38:00,VALID,916.374,VALID,0,VALID,99.5056,VALID,-0.0679233,VALID,18.3656,VALID,221,VALID,0.820518,
2000-05-18, 02:39:00,VALID,916.381,VALID,0,VALID,99.4751,VALID,-0.0509425,VALID,18.4372,VALID,215,VALID,0.836965,
2000-05-18, 02:40:00,VALID,916.38,VALID,0,VALID,99.4598,VALID,-0.0679233,VALID,18.4893,VALID,209,VALID,0.837891,
2000-05-18, 02:41:00,VALID,916.389,VALID,0,VALID,99.4662,VALID,-0.0509425,VALID,18.5211,VALID,208,VALID,0.870393,
2000-05-18, 02:42:00,VALID,916.398,VALID,0,VALID,99.3708,VALID,-0.0509425,VALID,18.5048,VALID,200,VALID,0.78125,
2000-05-18, 02:43:00,VALID,916.402,VALID,0,VALID,99.3377,VALID,-0.0509425,VALID,18.4826,VALID,195,VALID,1.08281,
2000-05-18, 02:44:00,VALID,916.386,VALID,0,VALID,99.3174,VALID,-0.0169808,VALID,18.4729,VALID,200,VALID,1.40169,
2000-05-18, 02:45:00,VALID,916.371,VALID,0,VALID,99.3568,VALID,-0.101885,VALID,18.4789,VALID,200,VALID,1.40951,
2000-05-18, 02:46:00,VALID,916.348,VALID,0,VALID,99.3492,VALID,-0.0339617,VALID,18.4888,VALID,194,VALID,1.07993,
2000-05-18, 02:47:00,VALID,916.355,VALID,0,VALID,99.3861,VALID,-0.0509425,VALID,18.5048,VALID,186,VALID,1.15707,
2000-05-18, 02:48:00,VALID,916.36,VALID,0,VALID,99.4102,VALID,-0.0509425,VALID,18.5336,VALID,183,VALID,1.01912,
2000-05-18, 02:49:00,VALID,916.353,VALID,0,VALID,99.3924,VALID,-0.0339617,VALID,18.5721,VALID,179,VALID,0.933699,
2000-05-18, 02:50:00,VALID,916.331,VALID,0,VALID,99.428,VALID,-0.0339617,VALID,18.5977,VALID,183,VALID,1.31966,
2000-05-18, 02:51:00,VALID,916.314,VALID,0,VALID,99.367,VALID,0,VALID,18.6429,VALID,190,VALID,1.28758,
2000-05-18, 02:52:00,VALID,916.299,VALID,0,VALID,99.2907,VALID,-0.0169808,VALID,18.624,VALID,192,VALID,1.12664,
2000-05-18, 02:53:00,VALID,916.297,VALID,0,VALID,99.292,VALID,-0.0679233,VALID,18.627,VALID,188,VALID,1.03025,
2000-05-18, 02:54:00,VALID,916.306,VALID,0,VALID,99.2754,VALID,0,VALID,18.6529,VALID,191,VALID,0.986178,
2000-05-18, 02:55:00,VALID,916.314,VALID,0,VALID,99.2462,VALID,0,VALID,18.6725,VALID,190,VALID,1.11972,
2000-05-18, 02:56:00,VALID,916.305,VALID,0,VALID,99.2564,VALID,-0.0679233,VALID,18.6889,VALID,200,VALID,1.38898,
2000-05-18, 02:57:00,VALID,916.313,VALID,0,VALID,99.2386,VALID,-0.0509425,VALID,18.6914,VALID,204,VALID,1.21655,
2000-05-18, 02:58:00,VALID,916.311,VALID,0,VALID,99.208,VALID,-0.0509425,VALID,18.6886,VALID,202,VALID,1.20252,
2000-05-18, 02:59:00,VALID,916.313,VALID,0,VALID,99.1966,VALID,-0.0169808,VALID,18.7142,VALID,195,VALID,1.15901,
2000-05-18, 03:00:00,VALID,916.325,VALID,0,VALID,99.072,VALID,-0.0509425,VALID,18.6983,VALID,190,VALID,1.27447,
2000-05-18, 03:01:00,VALID,916.314,VALID,0,VALID,99.0033,VALID,-0.0849042,VALID,18.6916,VALID,196,VALID,1.46664,
2000-05-18, 03:02:00,VALID,916.31,VALID,0,VALID,98.9474,VALID,-0.0339617,VALID,18.6785,VALID,195,VALID,1.29622,
2000-05-18, 03:03:00,VALID,916.295,VALID,0,VALID,98.8851,VALID,-0.0169808,VALID,18.6953,VALID,192,VALID,0.902778,
2000-05-18, 03:04:00,VALID,916.277,VALID,0,VALID,98.7604,VALID,-0.0679233,VALID,18.6884,VALID,174,VALID,0.861637,
2000-05-18, 03:05:00,VALID,916.248,VALID,0,VALID,98.7592,VALID,-0.0169808,VALID,18.7018,VALID,175,VALID,1.04624,
2000-05-18, 03:06:00,VALID,916.228,VALID,0,VALID,98.7197,VALID,0,VALID,18.7207,VALID,183,VALID,0.888839,
2000-05-18, 03:07:00,VALID,916.186,VALID,0,VALID,98.6676,VALID,-0.0169808,VALID,18.7269,VALID,200,VALID,0.895312,
2000-05-18, 03:08:00,VALID,916.168,VALID,0,VALID,98.5621,VALID,-0.0169808,VALID,18.7202,VALID,196,VALID,1.01192,
2000-05-18, 03:09:00,VALID,916.151,VALID,0,VALID,98.4998,VALID,-0.0509425,VALID,18.7567,VALID,196,VALID,0.803686,
2000-05-18, 03:10:00,VALID,916.122,VALID,0,VALID,98.3167,VALID,-0.0339617,VALID,18.7564,VALID,200,VALID,0.610156,
2000-05-18, 03:11:00,VALID,916.121,VALID,0,VALID,98.1234,VALID,-0.0509425,VALID,18.7209,VALID,193,VALID,0.696135,
2000-05-18, 03:12:00,VALID,916.121,VALID,0,VALID,98.145,VALID,-0.0679233,VALID,18.7398,VALID,192,VALID,1.05743,
2000-05-18, 03:13:00,VALID,916.108,VALID,0,VALID,98,VALID,-0.0679233,VALID,18.7564,VALID,193,VALID,1.0645,
2000-05-18, 03:14:00,VALID,916.099,VALID,0,VALID,97.8563,VALID,-0.0509425,VALID,18.7497,VALID,204,VALID,1.06571,
2000-05-18, 03:15:00,VALID,916.099,VALID,0,VALID,97.7152,VALID,-0.0679233,VALID,18.7438,VALID,213,VALID,0.966947,
2000-05-18, 03:16:00,VALID,916.099,VALID,0,VALID,97.8233,VALID,-0.0679233,VALID,18.7761,VALID,213,VALID,1.20067,
2000-05-18, 03:17:00,VALID,916.114,VALID,0,VALID,97.8322,VALID,-0.0169808,VALID,18.8051,VALID,215,VALID,1.07969,
2000-05-18, 03:18:00,VALID,916.112,VALID,0,VALID,97.7114,VALID,-0.101885,VALID,18.8238,VALID,220,VALID,0.917752,
2000-05-18, 03:19:00,VALID,916.125,VALID,0,VALID,97.5397,VALID,-0.0339617,VALID,18.8399,VALID,221,VALID,0.49197,
2000-05-18, 03:20:00,VALID,916.128,VALID,0,VALID,97.321,VALID,-0.0169808,VALID,18.8374,VALID,196,VALID,0.242821,
2000-05-18, 03:21:00,VALID,916.117,VALID,0,VALID,97.073,VALID,-0.0679233,VALID,18.8109,VALID,204,VALID,0.510485,
2000-05-18, 03:22:00,VALID,916.119,VALID,0,VALID,96.9344,VALID,-0.0509425,VALID,18.7724,VALID,199,VALID,0.528505,
2000-05-18, 03:23:00,VALID,916.123,VALID,0,VALID,96.7411,VALID,-0.0849042,VALID,18.7336,VALID,200,VALID,0.396748,
2000-05-18, 03:24:00,VALID,916.129,VALID,0,VALID,96.8174,VALID,-0.0169808,VALID,18.6785,VALID,209,VALID,0.527679,
2000-05-18, 03:25:00,VALID,916.142,VALID,0,VALID,96.9255,VALID,-0.0509425,VALID,18.6499,VALID,215,VALID,0.117804,
2000-05-18, 03:26:00,VALID,916.15,VALID,0,VALID,96.8861,VALID,-0.0339617,VALID,18.6208,VALID,228,VALID,0,
2000-05-18, 03:27:00,VALID,916.146,VALID,0,VALID,96.8543,VALID,-0.0339617,VALID,18.582,VALID,237,VALID,0,
2000-05-18, 03:28:00,VALID,916.147,VALID,0,VALID,96.6445,VALID,-0.0679233,VALID,18.5269,VALID,237,VALID,0,
2000-05-18, 03:29:00,VALID,916.153,VALID,0,VALID,96.3431,VALID,-0.0509425,VALID,18.4427,VALID,216,VALID,0,
2000-05-18, 03:30:00,VALID,916.144,VALID,0,VALID,96.5135,VALID,-0.101885,VALID,18.4012,VALID,203,VALID,0,
2000-05-18, 03:31:00,VALID,916.137,VALID,0,VALID,97.0031,VALID,-0.0509425,VALID,18.3359,VALID,190,VALID,0,
2000-05-18, 03:32:00,VALID,916.138,VALID,0,VALID,97.3731,VALID,-0.0509425,VALID,18.3038,VALID,173,VALID,0,
2000-05-18, 03:33:00,VALID,916.147,VALID,0,VALID,97.8093,VALID,-0.0339617,VALID,18.3174,VALID,199,VALID,0,
2000-05-18, 03:34:00,VALID,916.149,VALID,0,VALID,97.8716,VALID,-0.0679233,VALID,18.2978,VALID,207,VALID,0,
2000-05-18, 03:35:00,VALID,916.157,VALID,0,VALID,97.8881,VALID,-0.0679233,VALID,18.2849,VALID,226,VALID,0.291016,